Regional Weather Roundup
Issued by NWS

Home | Current Version | Previous Version | Graphics & Text | Print | Product List | Glossary On
Versions: 1 2 3 4 5 6 7 8 9 10 11 12 13 14 15 16 17 18 19 20 21 22 23 24 25 26 27 28 29 30 31 32 33 34 35 36 37 38 39 40 41 42 43 44 45 46 47 48 49 50
000
ASUS43 KLSX 280607
RWRMO

WEATHER SUMMARY FOR MISSOURI
NATIONAL WEATHER SERVICE SPRINGFIELD MO
100 AM CDT THU MAY 28 2015

NOTE: "FAIR" INDICATES FEW OR NO CLOUDS BELOW 12,000 FEET WITH NO
       SIGNIFICANT WEATHER AND/OR OBSTRUCTIONS TO VISIBILITY.
       CURRENT SKY AND/OR WEATHER CONDITIONS ARE NOT AVAILABLE FOR
       CHILLICOTHE AND FARMINGTON.

MOZ001>031-035>038-043-044-053-054-280700-
...NORTHERN AND WESTERN MISSOURI...

CITY           SKY/WX    TMP DP  RH WIND       PRES   REMARKS
KANSAS CTY INT MOCLDY    69  55  60 SE8       30.09S
6HR MIN TEMP:  65; 6HR MAX TEMP:  79;

KANSAS C DTWN  MOCLDY    67  56  67 E6        30.09R
6HR MIN TEMP:  67; 6HR MAX TEMP:  81;

LEE`S SUMMIT   CLOUDY    67  56  67 E6        30.11R
6HR MIN TEMP:  66; 6HR MAX TEMP:  79;

ST JOSEPH      MOCLDY    62  58  86 N3        30.09S
6HR MIN TEMP:  62; 6HR MAX TEMP:  78;

CHILLICOTHE      N/A     63  60  90 CALM      30.13R
6HR MIN TEMP:  62; 6HR MAX TEMP:  81;

KIRKSVILLE     PTCLDY    59  57  93 SE3       30.16R
6HR MIN TEMP:  58; 6HR MAX TEMP:  78;


$$
MOZ066>068-077>081-088>096-101>105-280700-
...SOUTHWEST MISSOURI...

CITY           SKY/WX    TMP DP  RH WIND       PRES   REMARKS
SPRINGFIELD    MOCLDY    71  64  78 E3        30.12R
6HR MIN TEMP:  68; 6HR MAX TEMP:  81;

JOPLIN         MOCLDY    69  65  86 S6        30.10R
6HR MIN TEMP:  69; 6HR MAX TEMP:  81;


$$
MOZ032>034-039>042-045>050-055>058-069>072-280700-
...CENTRAL MISSOURI...

CITY           SKY/WX    TMP DP  RH WIND       PRES   REMARKS
COLUMBIA       CLOUDY    65  58  78 E7        30.14R
6HR MIN TEMP:  64; 6HR MAX TEMP:  80;

JEFFERSON CITY MOCLDY    62  59  90 SE5       30.14R
6HR MIN TEMP:  62; 6HR MAX TEMP:  83;

ROLLA          MOCLDY    65  58  78 E7        30.14R
6HR MIN TEMP:  63; 6HR MAX TEMP:  78;

SEDALIA        CLOUDY    66  57  72 SE5       30.14R
6HR MIN TEMP:  66; 6HR MAX TEMP:  81;

WHITEMAN AFB   CLOUDY    65  58  79 SE3       30.11R
WARRENSBURG    CLOUDY    63  59  88 CALM      30.12R
OSAGE BEACH    MOCLDY    63  57  82 CALM      30.14R

$$
MOZ051-052-059>065-280700-
...EAST CENTRAL MISSOURI...

CITY           SKY/WX    TMP DP  RH WIND       PRES   REMARKS
ST LOUIS INTL  PTCLDY    69  57  65 CALM      30.15R
6HR MIN TEMP:  68; 6HR MAX TEMP:  80;

SPIRIT OF STL  PTCLDY    62  60  93 CALM      30.14R
6HR MIN TEMP:  61; 6HR MAX TEMP:  80;

ST CHARLES     CLEAR     63  60  90 CALM      30.14R
6HR MIN TEMP:  62; 6HR MAX TEMP:  78;


$$
MOZ072>076-082>087-097>100-106>115-280700-
...SOUTH CENTRAL AND SOUTHEAST MISSOURI...

CITY           SKY/WX    TMP DP  RH WIND       PRES   REMARKS
CAPE GIRARDEAU PTCLDY    70  68  93 S6        30.14R
6HR MIN TEMP:  70; 6HR MAX TEMP:  78;

FARMINGTON     PTCLDY    66  64  94 SE5       30.20R
6HR MIN TEMP:  66; 6HR MAX TEMP:  79;

POPLAR BLUFF   PTCLDY    68  66  93 CALM      30.14R
6HR MIN TEMP:  68; 6HR MAX TEMP:  79;

WEST PLAINS    CLOUDY    69  65  86 CALM      30.15F
6HR MIN TEMP:  69; 6HR MAX TEMP:  76; 6HR PCP:  1.36;


$$



USA.gov is the U.S. government's official web portal to all federal, state and local government web resources and services.